Year,Month,Day,Hour,Minute,Value (Times are PST for temperature in C)
2008,07,25,13,19,22.60
2008,07,25,13,20,22.70
2008,07,25,13,21,22.90
2008,07,25,13,22,23.10
2008,07,25,13,23,23.30
2008,07,25,13,24,23.30
2008,07,25,13,25,23.40
2008,07,25,13,26,23.50
2008,07,25,13,27,23.60
2008,07,25,13,28,23.70
2008,07,25,13,29,23.70
2008,07,25,13,30,23.70
2008,07,25,13,31,23.70
2008,07,25,13,32,23.80
2008,07,25,13,33,23.80
2008,07,25,13,34,23.80
2008,07,25,13,35,23.90
2008,07,25,13,36,23.90
2008,07,25,13,37,23.70
2008,07,25,13,38,23.70
2008,07,25,13,39,23.70
2008,07,25,13,40,23.70
2008,07,25,13,41,23.60
2008,07,25,13,42,23.40
2008,07,25,13,43,23.30
2008,07,25,13,44,23.10
2008,07,25,13,45,23.10
2008,07,25,13,46,23.10
2008,07,25,13,47,23.10
2008,07,25,13,48,23.10
2008,07,25,13,49,23.10
2008,07,25,13,50,23.10
2008,07,25,13,51,23.20
2008,07,25,13,52,23.20
2008,07,25,13,53,23.20
2008,07,25,13,54,23.20
2008,07,25,13,55,23.20
2008,07,25,13,56,23.30
2008,07,25,13,57,23.30
2008,07,25,13,58,23.40
2008,07,25,13,59,23.40
2008,07,25,14,00,23.60
2008,07,25,14,01,23.70
2008,07,25,14,02,23.80
2008,07,25,14,03,23.80
2008,07,25,14,04,23.80
2008,07,25,14,05,23.80
2008,07,25,14,06,23.70
2008,07,25,14,07,23.70
2008,07,25,14,08,23.80
2008,07,25,14,09,23.90
2008,07,25,14,10,24.10
2008,07,25,14,11,24.20
2008,07,25,14,12,24.30
2008,07,25,14,13,24.40
2008,07,25,14,14,24.40
2008,07,25,14,15,24.40
2008,07,25,14,16,24.30
2008,07,25,14,17,24.30
2008,07,25,14,18,24.40
2008,07,25,14,19,24.40
2008,07,25,14,20,24.40
2008,07,25,14,21,24.30
2008,07,25,14,22,24.20
2008,07,25,14,23,24.20
2008,07,25,14,24,24.20
2008,07,25,14,25,24.20
2008,07,25,14,26,24.20
2008,07,25,14,27,24.20
2008,07,25,14,28,24.00
2008,07,25,14,29,23.80
2008,07,25,14,30,23.80
2008,07,25,14,31,23.80
2008,07,25,14,32,23.70
2008,07,25,14,33,23.70
2008,07,25,14,34,23.70
2008,07,25,14,35,23.70
2008,07,25,14,36,23.80
2008,07,25,14,37,23.90
2008,07,25,14,38,23.90
2008,07,25,14,39,23.90
2008,07,25,14,40,23.80
2008,07,25,14,41,24.00
2008,07,25,14,42,24.10
2008,07,25,14,43,24.10
2008,07,25,14,44,24.10
2008,07,25,14,45,24.10
2008,07,25,14,46,24.10
2008,07,25,14,47,24.00
2008,07,25,14,48,23.90
2008,07,25,14,49,23.90
2008,07,25,14,50,23.90
2008,07,25,14,51,24.10
2008,07,25,14,52,24.10
2008,07,25,14,53,24.10
2008,07,25,14,54,24.10
2008,07,25,14,55,23.90
2008,07,25,14,56,23.90
2008,07,25,14,57,23.80
2008,07,25,14,58,23.70
2008,07,25,14,59,23.70
2008,07,25,15,00,23.70
2008,07,25,15,01,23.60
2008,07,25,15,02,23.50
2008,07,25,15,03,23.30
2008,07,25,15,04,23.30
2008,07,25,15,05,23.20
2008,07,25,15,06,23.10
2008,07,25,15,07,23.10
2008,07,25,15,08,23.00
2008,07,25,15,09,22.90
2008,07,25,15,10,22.90
2008,07,25,15,11,22.90
2008,07,25,15,12,22.80
2008,07,25,15,13,22.70
2008,07,25,15,14,22.70
2008,07,25,15,15,22.60
2008,07,25,15,16,22.50
2008,07,25,15,17,22.50
2008,07,25,15,18,22.40
2008,07,25,15,19,22.40
2008,07,25,15,20,22.40
2008,07,25,15,21,22.30
2008,07,25,15,22,22.30
2008,07,25,15,23,22.20
2008,07,25,15,24,22.20
2008,07,25,15,25,22.10
2008,07,25,15,26,22.20
2008,07,25,15,27,22.20
2008,07,25,15,28,22.20
2008,07,25,15,29,22.20
2008,07,25,15,30,22.20
2008,07,25,15,31,22.20
2008,07,25,15,32,22.10
2008,07,25,15,33,22.10
2008,07,25,15,34,22.10
2008,07,25,15,35,22.10
2008,07,25,15,36,22.20
2008,07,25,15,37,22.20
2008,07,25,15,38,22.20
2008,07,25,15,39,22.30
2008,07,25,15,40,22.40
2008,07,25,15,41,22.30
2008,07,25,15,42,22.30
2008,07,25,15,43,22.40
2008,07,25,15,44,22.50
2008,07,25,15,45,22.50
2008,07,25,15,46,22.60
2008,07,25,15,47,22.60
2008,07,25,15,48,22.60
2008,07,25,15,49,22.50
2008,07,25,15,50,22.50
2008,07,25,15,51,22.50
2008,07,25,15,52,22.50
2008,07,25,15,53,22.60
2008,07,25,15,54,22.70
2008,07,25,15,55,22.80
2008,07,25,15,56,22.90
2008,07,25,15,57,22.90
2008,07,25,15,58,23.10
2008,07,25,15,59,23.20
2008,07,25,16,00,23.30
2008,07,25,16,01,23.50
2008,07,25,16,02,23.60
2008,07,25,16,03,23.70
2008,07,25,16,04,23.70
2008,07,25,16,05,23.80
2008,07,25,16,06,23.80
2008,07,25,16,07,23.80
2008,07,25,16,08,23.80
2008,07,25,16,09,23.90
2008,07,25,16,10,23.90
2008,07,25,16,11,23.90
2008,07,25,16,12,23.80
2008,07,25,16,13,23.80
2008,07,25,16,14,23.70
2008,07,25,16,15,23.60
2008,07,25,16,16,23.60
2008,07,25,16,17,23.60
2008,07,25,16,18,23.60
2008,07,25,16,19,23.60
2008,07,25,16,20,23.60
2008,07,25,16,21,23.50
2008,07,25,16,22,23.40
2008,07,25,16,23,23.40
2008,07,25,16,24,23.50
2008,07,25,16,25,23.40
2008,07,25,16,26,23.40
2008,07,25,16,27,23.50
2008,07,25,16,28,23.60
2008,07,25,16,29,23.60
2008,07,25,16,30,23.70
2008,07,25,16,31,23.80
2008,07,25,16,32,23.90
2008,07,25,16,33,24.00
2008,07,25,16,34,24.10
2008,07,25,16,35,24.00
2008,07,25,16,36,23.90
2008,07,25,16,37,23.80
2008,07,25,16,38,23.80
2008,07,25,16,39,23.70
2008,07,25,16,40,23.70
2008,07,25,16,41,23.70
2008,07,25,16,42,23.70
2008,07,25,16,43,23.70
2008,07,25,16,44,23.70
2008,07,25,16,45,23.60
2008,07,25,16,46,23.60
2008,07,25,16,47,23.40
2008,07,25,16,48,23.40
2008,07,25,16,49,23.40
2008,07,25,16,50,23.40
2008,07,25,16,51,23.60
2008,07,25,16,52,23.40
2008,07,25,16,53,23.40
2008,07,25,16,54,23.40
2008,07,25,16,55,23.40
2008,07,25,16,56,23.30
2008,07,25,16,57,23.30
2008,07,25,16,58,23.30
2008,07,25,16,59,23.40
2008,07,25,17,00,23.50
2008,07,25,17,01,23.60
2008,07,25,17,02,23.60
2008,07,25,17,03,23.70
2008,07,25,17,04,23.70
2008,07,25,17,05,23.70
2008,07,25,17,06,23.70
2008,07,25,17,07,23.70
2008,07,25,17,08,23.60
2008,07,25,17,09,23.50
2008,07,25,17,10,23.60
2008,07,25,17,11,23.60
2008,07,25,17,12,23.60
2008,07,25,17,13,23.60
2008,07,25,17,14,23.50
2008,07,25,17,15,23.60
2008,07,25,17,16,23.50
2008,07,25,17,17,23.40
2008,07,25,17,18,23.40
2008,07,25,17,19,23.30
2008,07,25,17,20,23.30
2008,07,25,17,21,23.30
2008,07,25,17,22,23.40
2008,07,25,17,23,23.40
2008,07,25,17,24,23.40
2008,07,25,17,25,23.40
2008,07,25,17,26,23.30
2008,07,25,17,27,23.30
2008,07,25,17,28,23.30
2008,07,25,17,29,23.30
2008,07,25,17,30,23.30
2008,07,25,17,31,23.30
2008,07,25,17,32,23.20
2008,07,25,17,33,23.10
2008,07,25,17,34,23.10
2008,07,25,17,35,23.10
2008,07,25,17,36,23.00
2008,07,25,17,37,22.90
2008,07,25,17,38,22.90
2008,07,25,17,39,22.80
2008,07,25,17,40,22.80
2008,07,25,17,41,22.70
2008,07,25,17,42,22.60
2008,07,25,17,43,22.50
2008,07,25,17,44,22.50
2008,07,25,17,45,22.40
2008,07,25,17,46,22.30
2008,07,25,17,47,22.30
2008,07,25,17,48,22.20
2008,07,25,17,49,22.20
2008,07,25,17,50,22.00
2008,07,25,17,51,22.00
2008,07,25,17,52,21.90
2008,07,25,17,53,21.90
2008,07,25,17,54,21.80
2008,07,25,17,55,21.80
2008,07,25,17,56,21.80
2008,07,25,17,57,21.70
2008,07,25,17,58,21.70
2008,07,25,17,59,21.70
2008,07,25,18,00,21.70
2008,07,25,18,01,21.70
2008,07,25,18,02,21.70
2008,07,25,18,03,21.70
2008,07,25,18,04,21.80
2008,07,25,18,05,21.80
2008,07,25,18,06,21.90
2008,07,25,18,07,22.00
2008,07,25,18,08,22.00
2008,07,25,18,09,21.90
2008,07,25,18,10,21.90
2008,07,25,18,11,21.90
2008,07,25,18,12,21.90
2008,07,25,18,13,21.90
2008,07,25,18,14,21.90
2008,07,25,18,15,21.90
2008,07,25,18,16,21.80
2008,07,25,18,17,21.80
2008,07,25,18,18,21.80
2008,07,25,18,19,21.80
2008,07,25,18,20,21.80
2008,07,25,18,21,21.80
2008,07,25,18,22,21.80
2008,07,25,18,23,21.80
2008,07,25,18,24,21.80
2008,07,25,18,25,21.80
2008,07,25,18,26,21.80
2008,07,25,18,27,21.80
2008,07,25,18,28,21.80
2008,07,25,18,29,21.80
2008,07,25,18,30,21.80
2008,07,25,18,31,21.90
2008,07,25,18,32,21.90
2008,07,25,18,33,22.00
2008,07,25,18,34,22.00
2008,07,25,18,35,22.10
2008,07,25,18,36,22.20
2008,07,25,18,37,22.20
2008,07,25,18,38,22.20
2008,07,25,18,39,22.20
2008,07,25,18,40,22.30
2008,07,25,18,41,22.30
2008,07,25,18,42,22.30
2008,07,25,18,43,22.40
2008,07,25,18,44,22.40
2008,07,25,18,45,22.50
2008,07,25,18,46,22.60
2008,07,25,18,47,22.60
2008,07,25,18,48,22.50
2008,07,25,18,49,22.50
2008,07,25,18,50,22.60
2008,07,25,18,51,22.60
2008,07,25,18,52,22.60
2008,07,25,18,53,22.70
2008,07,25,18,54,22.60
2008,07,25,18,55,22.60
2008,07,25,18,56,22.60
2008,07,25,18,57,22.60
2008,07,25,18,58,22.70
2008,07,25,18,59,22.70
2008,07,25,19,00,22.70
2008,07,25,19,01,22.60
2008,07,25,19,02,22.50
2008,07,25,19,03,22.40
2008,07,25,19,04,22.30
2008,07,25,19,05,22.20
2008,07,25,19,06,22.20
2008,07,25,19,07,22.10
2008,07,25,19,08,22.10
2008,07,25,19,09,22.00
2008,07,25,19,10,22.00
2008,07,25,19,11,22.00
2008,07,25,19,12,22.00
2008,07,25,19,13,21.90
2008,07,25,19,14,21.90
2008,07,25,19,15,21.80
2008,07,25,19,16,21.80
2008,07,25,19,17,21.70
2008,07,25,19,18,21.70
2008,07,25,19,19,21.70
2008,07,25,19,20,21.60
2008,07,25,19,21,21.60
2008,07,25,19,22,21.60
2008,07,25,19,23,21.60
2008,07,25,19,24,21.60
2008,07,25,19,25,21.60
2008,07,25,19,26,21.60
2008,07,25,19,27,21.60
2008,07,25,19,28,21.60
2008,07,25,19,29,21.60
2008,07,25,19,30,21.60
2008,07,25,19,31,21.60
2008,07,25,19,32,21.60
2008,07,25,19,33,21.60
2008,07,25,19,34,21.60
2008,07,25,19,35,21.60
2008,07,25,19,36,21.60
2008,07,25,19,37,21.60
2008,07,25,19,38,21.60
2008,07,25,19,39,21.70
2008,07,25,19,40,21.70
2008,07,25,19,41,21.70
2008,07,25,19,42,21.70
2008,07,25,19,43,21.80
2008,07,25,19,44,21.80
2008,07,25,19,45,21.80
2008,07,25,19,46,21.90
2008,07,25,19,47,21.90
2008,07,25,19,48,21.90
2008,07,25,19,49,21.90
2008,07,25,19,50,21.90
2008,07,25,19,51,21.90
2008,07,25,19,52,21.90
2008,07,25,19,53,21.90
2008,07,25,19,54,21.90
2008,07,25,19,55,21.90
2008,07,25,19,56,21.90
2008,07,25,19,57,21.90
2008,07,25,19,58,21.90
2008,07,25,19,59,21.90
2008,07,25,20,00,21.90
2008,07,25,20,01,21.80
2008,07,25,20,02,21.80
2008,07,25,20,03,21.80
2008,07,25,20,04,21.70
2008,07,25,20,05,21.70
2008,07,25,20,06,21.70
2008,07,25,20,07,21.70
2008,07,25,20,08,21.70
2008,07,25,20,09,21.60
2008,07,25,20,10,21.60
2008,07,25,20,11,21.60
2008,07,25,20,12,21.60
2008,07,25,20,13,21.60
2008,07,25,20,14,21.60
2008,07,25,20,15,21.60
2008,07,25,20,16,21.60
2008,07,25,20,17,21.60
2008,07,25,20,18,21.60
2008,07,25,20,19,21.60
2008,07,25,20,20,21.60
2008,07,25,20,21,21.60
2008,07,25,20,22,21.50
2008,07,25,20,23,21.40
2008,07,25,20,24,21.40
2008,07,25,20,25,21.40
2008,07,25,20,26,21.40
2008,07,25,20,27,21.40
2008,07,25,20,28,21.40
2008,07,25,20,29,21.40
2008,07,25,20,30,21.40
2008,07,25,20,31,21.40
2008,07,25,20,32,21.40
2008,07,25,20,33,21.40
2008,07,25,20,34,21.40
2008,07,25,20,35,21.30
2008,07,25,20,36,21.30
2008,07,25,20,37,21.30
2008,07,25,20,38,21.30
2008,07,25,20,39,21.30
2008,07,25,20,40,21.30
2008,07,25,20,41,21.30
2008,07,25,20,42,21.30
2008,07,25,20,43,21.30
2008,07,25,20,44,21.30
2008,07,25,20,45,21.30
2008,07,25,20,46,21.30
2008,07,25,20,47,21.30
2008,07,25,20,48,21.30
2008,07,25,20,49,21.30
2008,07,25,20,50,21.30
2008,07,25,20,51,21.30
2008,07,25,20,52,21.30
2008,07,25,20,53,21.30
